Temp
69 64 59 65 67 70 68 62 64 70 77 71 66 65 70 70 72 70 68 67 70 73 71 76 77 82 81 78 79 80 77 75 74 72 71 70 70 71 72 73 75 76 75 76
64 60 72 71 72 69 66 62 64 71 76 71 64 65 69 71 70 70 69 68 68 69 71 74 75 80 80 76 77 78 78 74 76 77 75 72 70 71 72 72 74 75 76 78
61 69 77 72 70 67 64 61 64 67 71 69 66 61 63 67 70 72 73 70 71 69 68 71 73 75 81 76 78 78 79 77 77 73 71 71 71 71 71 71 72 74 76 77
65 73 74 67 68 68 54 73 72 72 64 57 66 51 58 60 64 67 70 70 69 71 70 71 71 71 81 79 75 74 73 73 73 73 73 71 70 69 70 71 72 74 76 76
67 71 69 67 71 73 70 74 68 70 60 56 59 54 57 58 59 63 67 70 71 72 72 72 72 71 73 73 72 72 71 72 73 74 76 74 69 70 70 70 71 72 73 75
70 76 73 73 77 75 75 69 64 58 56 51 54 56 53 54 59 62 68 72 74 72 70 69 69 70 70 71 70 70 69 69 69 72 71 72 70 70 69 69 70 70 71 72
67 70 74 78 67 70 67 58 50 51 48 49 49 54 56 61 65 66 67 70 72 70 68 67 66 68 68 69 69 69 68 68 69 70 71 71 70 70 70 70 69 69 69 70
56 60 69 75 73 67 60 59 51 44 45 49 54 50 58 64 66 67 70 71 73 70 68 68 68 67 69 69 67 67 66 67 69 71 72 72 71 70 71 70 71 70 69 71
54 60 76 75 75 74 60 56 60 51 45 48 49 57 63 62 64 67 71 74 69 69 70 70 69 68 68 69 67 68 69 69 70 72 72 72 72 71 71 71 71 71 70 72
62 58 69 74 75 74 68 67 57 53 45 43 49 51 54 59 60 66 68 71 70 70 70 68 69 68 69 69 68 69 70 70 70 70 70 71 72 72 72 71 70 71 71 72
63 60 66 69 65 61 65 60 56 54 51 47 44 50 61 61 63 65 68 69 68 70 71 69 69 69 70 70 68 68 68 69 69 69 69 69 71 73 72 71 72 72 71 71
65 58 56 60 67 68 65 59 56 52 50 47 48 53 62 63 64 64 65 67 67 69 72 71 69 69 68 69 68 68 67 69 69 70 69 69 72 73 72 72 71 71 71 71
67 56 51 58 61 65 62 61 56 53 49 48 49 54 60 60 62 63 65 66 67 69 71 70 68 67 66 67 67 67 67 67 68 68 70 73 73 72 73 73 73 72 71 71
67 54 54 51 55 58 60 64 61 57 49 50 52 56 53 58 60 61 65 67 68 69 70 68 67 67 66 66 67 67 68 69 69 69 70 73 73 73 73 73 73 73 72 71
65 56 52 58 62 63 63 63 65 58 58 54 56 57 56 58 60 63 65 69 69 70 69 69 68 68 69 68 67 69 69 69 70 71 72 73 74 72 72 72 72 73 72 73
60 56 52 55 64 63 62 66 64 64 61 57 56 55 58 61 62 64 67 69 67 68 69 69 70 69 69 69 71 70 70 70 70 69 69 71 72 72 72 72 73 72 71 72
60 55 51 49 58 60 54 60 61 62 62 61 57 58 60 61 64 64 64 67 67 68 68 68 67 67 67 68 70 69 69 71 69 69 70 71 71 71 70 71 70 71 72 72
56 53 49 48 49 44 58 64 67 62 63 63 63 62 63 62 62 64 65 65 67 67 68 68 68 68 68 69 69 70 70 71 70 69 71 71 71 70 71 70 70 71 70 70
59 53 48 49 46 53 61 64 62 59 57 64 62 63 65 65 64 63 67 67 66 65 67 68 68 68 67 69 70 70 69 68 68 68 69 68 68 71 71 69 70 71 69 69
55 55 56 46 46 46 57 66 69 65 50 65 65 62 62 62 55 57 65 67 68 69 69 69 70 70 69 69 68 68 67 66 66 67 68 67 69 69 70 69 69 70 71 70
52 51 51 47 48 53 62 68 69 51 53 64 65 64 63 59 60 65 64 65 66 69 70 69 67 66 67 66 67 67 65 66 66 66 66 66 66 67 69 70 70 69 67 65
51 49 48 47 45 46 65 66 58 59 60 64 63 64 64 64 66 67 67 66 67 67 69 69 67 66 66 66 64 65 65 67 66 66 66 65 65 66 67 68 67 69 66 64
52 55 52 52 52 59 60 60 62 63 63 64 64 65 66 65 63 64 64 63 66 65 67 67 67 67 67 66 64 64 66 65 65 64 64 64 64 64 63 63 63 65 64 63
56 55 54 54 57 58 62 64 65 64 63 64 65 65 66 62 64 63 64 64 64 64 65 65 64 64 64 65 64 63 64 64 63 62 62 62 62 61 61 63 64 64 63 61
57 56 53 51 55 58 62 63 65 66 67 67 66 66 64 63 63 64 63 62 62 62 62 62 61 60 61 62 62 63 64 63 62 61 62 61 61 61 60 62 62 63 62 62
56 56 53 51 57 57 59 62 67 66 65 64 64 64 65 63 63 62 61 60 60 60 61 61 61 60 62 62 63 63 63 62 61 60 62 59 60 60 60 61 62 52 53 51
MSLP
1008.03 1008.73 1008.91 1008.77 1009.00 1008.71 1008.53 1008.24 1007.63 1006.32 1005.55 1005.81 1006.61 1007.30 1008.40 1008.83 1009.36 1009.38 1009.33 1009.51 1009.31 1008.96 1009.48 1009.38 1009.41 1009.72 1010.40 1010.75 1011.13 1011.15 1011.79 1012.43 1013.00 1013.70 1014.25 1014.65 1014.85 1014.99 1014.97 1014.82 1014.70 1014.97 1015.31 1015.47
1008.74 1008.63 1007.70 1008.10 1008.31 1008.44 1008.19 1008.13 1007.27 1006.14 1005.60 1006.05 1007.13 1007.82 1008.73 1009.05 1009.47 1009.65 1009.62 1009.70 1009.82 1009.93 1009.34 1009.19 1009.19 1009.60 1009.98 1010.41 1010.52 1011.09 1011.40 1011.94 1012.46 1013.02 1013.70 1014.13 1014.49 1014.69 1014.65 1014.61 1014.55 1014.70 1014.90 1015.22
1008.47 1007.31 1007.22 1007.45 1007.36 1007.77 1007.45 1007.36 1006.65 1006.53 1006.21 1006.72 1007.45 1008.66 1009.80 1010.17 1010.06 1009.55 1009.12 1009.33 1009.78 1010.14 1010.23 1009.79 1008.95 1009.13 1009.39 1009.70 1009.86 1010.21 1010.62 1011.29 1011.98 1012.61 1013.44 1014.16 1014.57 1014.70 1014.68 1014.64 1014.62 1014.42 1014.58 1014.77
1008.01 1007.03 1006.85 1006.93 1006.92 1006.76 1006.77 1006.00 1006.14 1006.34 1007.16 1007.53 1008.00 1009.80 1010.44 1010.88 1010.65 1010.20 1009.81 1009.25 1009.26 1009.46 1009.61 1009.00 1008.99 1009.02 1008.99 1009.03 1009.92 1010.49 1010.98 1011.69 1012.52 1012.45 1013.05 1013.46 1013.75 1014.38 1014.28 1014.24 1014.26 1014.27 1014.22 1014.46
1007.37 1006.68 1006.33 1006.18 1005.68 1005.62 1005.60 1005.57 1006.40 1006.75 1007.59 1008.16 1009.04 1009.88 1010.17 1010.85 1010.84 1010.43 1009.90 1009.33 1008.90 1008.31 1008.17 1008.49 1008.77 1009.09 1009.25 1009.49 1009.76 1010.11 1010.91 1011.18 1012.26 1012.75 1012.58 1012.85 1013.46 1013.85 1014.13 1014.08 1014.15 1014.21 1014.24 1014.19
1006.74 1005.81 1005.62 1004.88 1004.46 1004.66 1005.12 1005.93 1007.05 1008.10 1008.82 1009.95 1010.22 1010.32 1010.70 1010.73 1010.55 1009.99 1009.17 1009.19 1009.00 1007.88 1007.75 1008.49 1008.85 1009.30 1009.98 1010.31 1010.47 1010.59 1011.15 1011.02 1011.75 1012.80 1012.86 1012.69 1012.83 1013.52 1014.03 1014.21 1014.25 1014.22 1014.30 1014.33
1006.67 1005.64 1004.63 1004.08 1004.36 1004.82 1005.68 1007.29 1008.70 1009.94 1010.75 1011.01 1010.86 1010.74 1010.33 1010.35 1010.30 1009.78 1009.12 1008.57 1008.73 1007.98 1008.19 1008.49 1008.93 1009.54 1010.14 1010.46 1010.74 1010.81 1011.88 1011.70 1012.23 1012.78 1012.34 1012.46 1012.81 1013.28 1013.49 1013.65 1013.88 1014.03 1014.24 1014.26
1007.28 1005.74 1004.44 1003.86 1003.86 1004.61 1005.96 1007.34 1009.21 1010.56 1011.81 1011.52 1011.17 1011.23 1010.10 1010.17 1010.04 1009.37 1008.62 1008.45 1008.45 1008.35 1008.34 1008.47 1008.67 1009.16 1009.93 1010.55 1010.92 1011.43 1011.58 1011.25 1011.48 1011.95 1011.62 1011.87 1012.41 1012.95 1012.98 1013.04 1013.15 1013.30 1013.56 1013.65
1007.16 1006.07 1004.42 1003.68 1003.66 1004.30 1006.06 1007.33 1008.25 1010.11 1011.72 1012.14 1012.12 1011.32 1009.82 1009.80 1009.80 1008.81 1008.09 1007.78 1008.57 1007.80 1008.22 1008.33 1008.38 1008.80 1009.86 1010.44 1010.72 1011.06 1010.90 1010.39 1010.90 1011.26 1010.86 1011.36 1012.02 1012.32 1012.57 1012.66 1012.69 1012.79 1012.91 1013.12
1006.68 1006.56 1005.11 1004.32 1004.07 1004.68 1005.39 1007.01 1008.52 1009.98 1011.66 1012.41 1012.12 1011.65 1010.49 1009.60 1009.80 1009.01 1008.05 1007.62 1007.66 1007.77 1008.05 1008.23 1008.24 1008.72 1009.34 1010.28 1010.71 1010.66 1011.09 1011.31 1011.03 1010.99 1010.93 1011.43 1011.73 1011.78 1012.15 1012.37 1012.43 1012.38 1012.50 1012.70
1006.45 1007.18 1006.34 1005.41 1005.68 1005.89 1006.26 1007.30 1008.69 1010.28 1011.45 1012.19 1012.27 1011.21 1008.98 1009.12 1009.57 1009.15 1008.60 1008.35 1008.17 1007.99 1008.09 1007.94 1008.15 1008.58 1008.93 1009.54 1010.48 1010.39 1010.90 1011.40 1011.50 1011.22 1011.54 1011.84 1012.15 1011.84 1011.77 1011.86 1011.79 1011.82 1012.03 1012.24
1006.41 1007.51 1007.55 1007.20 1006.32 1006.47 1006.52 1007.36 1008.68 1010.48 1011.72 1011.97 1011.68 1010.08 1009.06 1009.10 1009.29 1009.79 1009.37 1009.01 1008.70 1008.67 1008.60 1008.26 1008.31 1008.46 1008.83 1009.19 1009.40 1009.48 1010.29 1011.06 1011.18 1011.53 1011.45 1011.75 1011.65 1011.19 1011.12 1011.23 1011.26 1011.40 1011.67 1011.84
1006.23 1007.77 1008.45 1007.77 1007.54 1007.03 1007.11 1007.68 1008.36 1009.83 1010.74 1011.50 1011.50 1010.06 1009.66 1009.56 1009.83 1009.85 1009.88 1009.34 1008.95 1008.58 1008.20 1008.58 1008.86 1009.01 1009.12 1009.24 1009.62 1009.44 1009.81 1010.31 1010.69 1011.42 1011.39 1010.88 1010.49 1010.37 1010.23 1010.24 1010.45 1010.88 1011.11 1011.29
1006.10 1008.69 1009.06 1009.00 1008.59 1008.18 1007.83 1007.74 1008.12 1009.09 1010.33 1010.78 1010.51 1009.79 1010.13 1010.09 1010.11 1010.25 1010.15 1009.31 1009.28 1008.85 1008.68 1008.86 1008.77 1009.09 1009.42 1009.51 1009.47 1009.56 1009.73 1010.11 1010.09 1010.54 1010.70 1010.34 1009.75 1009.51 1009.54 1009.56 1009.76 1010.24 1010.55 1010.68
1007.18 1009.25 1009.31 1009.07 1008.72 1008.36 1007.99 1007.85 1007.89 1008.54 1008.81 1009.65 1009.37 1009.52 1009.38 1009.62 1010.21 1010.22 1009.92 1009.56 1009.41 1009.46 1009.52 1009.58 1009.55 1009.40 1009.20 1009.28 1009.48 1009.88 1009.41 1009.62 1009.93 1010.15 1009.97 1009.51 1009.19 1008.86 1009.05 1009.01 1009.06 1009.43 1009.79 1010.04
1008.51 1009.58 1009.84 1009.56 1008.71 1008.25 1008.01 1007.79 1007.83 1008.25 1008.81 1009.14 1009.25 1009.37 1009.54 1009.82 1010.10 1010.05 1010.02 1009.86 1009.87 1009.81 1009.95 1009.91 1009.69 1009.57 1009.46 1009.23 1009.09 1009.27 1009.32 1009.35 1009.48 1009.40 1009.44 1008.97 1008.77 1008.50 1008.47 1008.34 1008.56 1008.70 1009.00 1009.42
1009.13 1010.00 1010.89 1010.41 1009.45 1008.64 1008.46 1008.10 1008.10 1008.67 1009.05 1009.29 1009.45 1009.48 1009.97 1010.31 1010.45 1010.65 1010.79 1010.64 1010.40 1010.21 1010.13 1010.13 1010.04 1009.81 1009.69 1009.67 1009.49 1009.35 1009.33 1009.00 1009.00 1008.91 1009.17 1009.38 1009.11 1008.70 1008.49 1008.40 1008.66 1008.40 1008.43 1008.65
1009.18 1010.44 1011.01 1011.20 1010.26 1009.70 1008.82 1008.23 1008.35 1009.01 1009.59 1009.51 1009.66 1010.11 1010.52 1010.89 1011.07 1011.03 1010.93 1010.94 1010.97 1010.74 1010.37 1010.38 1010.24 1009.91 1009.90 1009.80 1009.70 1009.61 1009.44 1009.46 1009.37 1009.44 1009.62 1009.69 1009.30 1009.30 1008.80 1008.79 1008.57 1008.34 1008.24 1008.13
1008.93 1010.01 1011.42 1011.75 1011.10 1010.09 1008.70 1008.34 1008.41 1008.93 1010.41 1010.30 1010.38 1010.77 1010.86 1011.28 1011.39 1011.58 1011.38 1011.13 1011.03 1010.92 1010.80 1010.48 1010.14 1010.03 1010.05 1009.86 1009.76 1009.62 1009.79 1009.78 1009.65 1009.85 1009.77 1009.85 1009.48 1008.97 1008.36 1008.25 1009.37 1009.33 1008.76 1008.33
1009.33 1009.58 1010.58 1011.96 1011.53 1010.34 1008.62 1008.07 1008.26 1008.87 1010.48 1010.45 1010.52 1011.04 1011.16 1011.25 1011.93 1011.75 1011.25 1011.22 1011.11 1010.81 1010.57 1010.35 1010.16 1010.05 1010.11 1010.02 1009.96 1010.01 1010.12 1009.85 1009.65 1009.54 1009.56 1009.65 1009.44 1009.08 1008.63 1008.20 1009.31 1009.91 1009.46 1008.51
1010.00 1010.77 1011.08 1011.47 1011.05 1009.99 1008.65 1008.06 1008.34 1009.46 1010.24 1010.17 1010.35 1010.81 1011.14 1011.28 1011.12 1011.01 1011.33 1011.45 1011.28 1011.02 1010.96 1010.76 1010.73 1010.77 1010.72 1010.64 1010.62 1010.41 1010.18 1009.89 1009.51 1009.37 1009.30 1009.28 1009.37 1009.48 1009.44 1009.41 1009.37 1008.37 1008.91 1009.72
1010.77 1011.19 1011.52 1011.82 1011.19 1010.09 1008.85 1008.56 1008.89 1009.38 1009.74 1009.98 1010.33 1010.48 1010.72 1010.73 1010.71 1010.84 1010.81 1010.74 1010.62 1010.45 1010.23 1010.14 1010.25 1010.29 1010.11 1010.14 1010.29 1010.32 1010.10 1009.49 1009.34 1009.18 1009.02 1009.03 1009.15 1009.25 1009.42 1009.35 1009.22 1009.15 1008.68 1007.91
1011.10 1010.97 1011.21 1011.71 1010.91 1010.10 1009.51 1009.25 1009.30 1009.38 1009.77 1010.29 1010.35 1010.36 1010.46 1010.68 1010.81 1010.83 1010.98 1011.00 1010.91 1010.72 1010.60 1010.40 1010.34 1010.19 1009.82 1009.70 1009.72 1009.86 1009.36 1009.31 1009.30 1009.25 1008.99 1008.77 1008.85 1008.92 1009.07 1009.28 1009.36 1009.27 1009.15 1008.36
1010.80 1010.65 1011.21 1011.38 1011.06 1010.59 1010.12 1009.93 1009.85 1009.88 1009.94 1010.06 1010.07 1010.11 1010.26 1010.53 1010.65 1010.82 1010.99 1011.18 1011.11 1010.91 1010.80 1010.66 1010.58 1010.43 1010.16 1009.65 1009.60 1009.51 1009.26 1009.19 1009.26 1009.24 1009.06 1008.78 1008.55 1008.52 1008.60 1008.49 1008.36 1008.50 1008.21 1007.99
1011.27 1011.01 1011.48 1011.89 1011.49 1011.11 1010.65 1010.25 1010.08 1010.12 1010.14 1010.22 1010.24 1010.24 1010.37 1010.48 1010.60 1010.76 1010.89 1011.08 1011.02 1010.94 1010.81 1010.75 1010.70 1010.54 1010.30 1009.79 1009.49 1009.16 1008.95 1008.90 1008.88 1008.81 1008.62 1008.47 1008.29 1007.97 1007.93 1007.94 1007.62 1007.53 1007.49 1007.20
1011.08 1010.86 1011.07 1011.19 1010.80 1010.78 1010.55 1010.05 1009.95 1010.08 1010.17 1010.21 1010.23 1010.34 1010.44 1010.57 1010.69 1010.69 1010.93 1011.00 1011.05 1011.07 1010.99 1010.86 1010.65 1010.38 1009.90 1009.51 1009.13 1008.77 1008.54 1008.52 1008.44 1008.38 1008.13 1007.90 1007.75 1007.55 1007.35 1007.38 1007.26 1006.62 1006.67 1006.67
Wind_Speed
5 5 6 8 6 5 5 4 8 12 5 4 3 2 7 5 4 5 7 7 8 11 1 3 4 9 14 8 12 17 14 10 8 4 4 3 4 3 2 3 5 6 6 7
5 6 13 4 4 6 6 5 8 7 1 4 3 4 6 4 2 5 6 6 8 7 5 3 4 8 14 16 14 14 14 11 10 7 4 3 3 2 3 3 4 5 7 7
6 9 5 1 4 4 6 6 3 5 4 5 4 5 6 5 5 8 4 4 3 7 6 7 9 9 14 17 17 16 16 14 12 7 4 3 2 2 1 2 3 4 6 7
6 6 4 3 8 6 4 5 3 5 3 2 3 3 5 2 5 4 4 4 7 8 8 11 7 7 14 14 6 8 7 4 3 8 9 7 5 5 4 4 3 4 5 7
9 7 4 4 8 7 9 2 2 3 1 2 2 6 6 4 8 3 3 4 6 12 16 14 8 3 1 9 9 6 5 10 3 7 10 9 4 3 2 2 5 5 4 6
9 5 5 8 3 4 2 5 7 5 4 5 5 4 5 3 4 7 7 5 3 3 8 7 3 3 4 6 8 6 5 4 7 6 7 9 8 6 4 4 4 4 4 4
6 5 4 5 2 3 8 8 4 6 7 6 6 3 7 3 5 7 11 8 2 10 9 6 6 6 5 5 3 7 8 8 5 6 7 5 6 7 9 7 5 5 4 3
1 9 3 3 8 8 2 8 7 4 2 5 4 3 6 5 9 11 12 6 5 6 4 6 9 6 7 7 4 3 7 5 7 9 8 7 7 5 7 7 6 5 5 5
4 6 7 3 2 6 2 1 4 7 2 3 2 6 9 4 8 8 8 6 8 8 5 6 7 5 7 7 7 7 6 8 10 11 8 7 5 8 9 8 5 5 5 5
3 3 5 5 5 5 7 4 4 4 2 1 4 5 7 6 4 9 7 8 9 4 4 5 6 5 4 7 7 7 5 5 6 6 3 2 5 7 9 7 7 7 6 6
5 5 8 4 4 0 6 4 6 6 4 5 1 8 7 6 8 8 7 8 9 8 8 2 5 4 4 4 7 6 6 5 5 3 2 3 8 8 9 8 9 8 6 7
5 6 3 3 2 3 3 2 5 6 4 0 3 8 8 8 9 3 7 9 9 9 9 6 4 6 5 4 2 4 3 4 4 6 6 8 12 10 10 10 8 7 8 6
5 4 3 10 8 5 5 3 4 5 4 5 6 8 4 4 5 4 7 9 8 8 7 5 1 3 3 4 4 4 4 5 5 5 8 11 13 10 12 10 8 7 8 8
9 4 6 7 6 2 5 5 2 5 4 4 7 6 3 7 7 2 7 7 6 5 6 7 6 2 3 6 6 6 7 7 8 8 9 15 10 9 9 9 8 8 8 8
7 3 2 5 6 3 4 4 7 4 6 6 5 8 4 7 8 7 1 4 6 8 8 6 5 5 2 5 6 7 7 6 7 10 12 13 10 7 7 6 8 8 8 8
4 2 1 3 4 3 2 6 3 4 3 2 3 1 2 3 4 5 5 4 2 6 6 5 5 6 6 7 1 4 5 6 5 7 7 6 7 7 7 8 8 7 7 8
3 6 3 5 4 5 5 3 1 4 3 1 2 3 1 5 8 5 5 5 4 5 6 7 6 6 7 7 6 7 6 6 6 7 5 6 7 7 7 6 6 7 9 8
7 6 3 4 3 1 6 3 13 12 6 6 5 6 3 5 3 5 3 4 6 3 5 5 5 6 6 4 6 5 7 9 7 5 5 6 8 7 8 6 7 8 6 8
5 7 3 4 4 5 4 2 0 4 3 5 3 4 4 4 3 4 3 4 2 1 0 1 2 3 3 5 4 6 7 6 6 5 5 5 6 7 7 10 16 13 6 5
5 4 7 3 4 7 7 2 2 6 0 4 5 4 4 2 3 4 1 2 5 5 3 4 4 2 1 1 1 4 2 4 4 4 3 2 3 6 6 8 8 12 15 6
3 4 6 4 4 5 6 3 4 3 8 4 7 6 6 2 5 3 3 5 6 7 7 4 3 3 4 4 4 2 2 5 4 4 4 4 3 2 2 4 3 4 6 11
2 2 2 2 2 3 4 2 2 6 2 5 4 5 6 5 4 5 3 3 6 5 5 3 2 3 5 4 2 5 5 5 5 5 5 4 3 2 1 0 2 3 5 6
2 5 4 5 5 4 4 3 3 3 6 4 6 4 6 6 3 3 3 4 4 3 3 3 3 5 6 5 5 6 8 5 5 5 7 6 5 3 2 2 1 3 5 6
4 2 4 3 4 4 5 5 4 2 3 2 2 2 3 2 3 4 3 5 5 4 5 4 4 7 8 7 6 7 7 5 5 6 7 6 6 5 2 1 4 2 5 4
5 3 4 1 3 2 3 2 4 4 5 4 2 2 2 1 3 5 4 4 5 5 4 3 5 6 8 7 7 7 6 4 5 6 6 6 5 6 4 3 4 3 4 5
4 6 5 7 8 5 5 2 3 5 3 2 3 2 3 1 4 4 3 1 1 1 3 4 6 6 8 7 8 7 7 6 6 6 6 5 5 5 4 3 5 11 11 9
Wind_Direction
348 39 249 245 184 216 269 258 284 286 243 102 228 47 125 150 160 209 229 215 218 205 73 163 150 211 206 201 188 188 179 176 160 162 160 160 187 177 208 219 205 177 171 193
12 251 248 221 179 218 242 265 274 277 71 120 167 230 82 75 6 345 246 224 231 274 350 342 304 221 190 196 196 192 191 171 174 175 172 150 170 182 175 201 226 207 183 190
165 244 17 251 267 198 269 212 226 238 9 27 124 26 64 10 18 328 313 227 211 227 248 259 222 224 200 189 196 191 189 176 177 163 130 88 91 53 158 202 217 226 195 192
230 279 253 273 252 144 248 198 203 283 60 270 112 263 112 151 226 263 245 234 218 204 204 239 256 249 214 201 148 130 121 103 217 165 173 170 179 172 211 191 203 220 202 197
257 285 311 277 220 162 230 102 59 348 137 35 44 88 260 118 231 227 230 203 216 225 210 208 225 211 264 125 133 116 106 117 190 213 196 186 166 185 213 187 194 218 217 211
246 251 216 220 273 183 62 63 42 56 52 22 309 123 276 281 274 298 281 271 243 213 124 149 163 136 116 104 117 104 105 273 52 234 212 195 178 189 176 214 211 210 211 219
315 258 253 192 220 13 72 58 352 356 9 229 327 34 243 273 297 248 271 258 222 131 144 153 183 170 128 137 128 134 202 155 162 242 203 191 209 192 211 202 199 190 207 211
141 333 292 169 186 177 126 137 149 226 233 270 334 330 262 228 282 271 265 266 175 140 132 191 203 182 147 125 137 209 183 148 167 228 193 173 181 214 227 207 201 200 202 209
158 278 293 183 127 115 135 54 182 105 358 53 261 284 295 231 285 280 282 267 159 100 118 239 231 197 147 144 190 209 224 190 203 222 223 169 174 200 228 224 203 201 204 218
201 347 267 320 63 23 112 150 53 14 124 258 302 274 243 258 230 276 276 354 357 23 74 216 236 196 159 143 187 208 242 233 225 269 347 171 210 220 229 219 207 207 211 220
144 103 292 46 29 251 6 16 65 111 107 155 228 266 228 206 195 234 262 344 329 339 341 273 200 214 172 156 166 205 227 208 228 210 220 254 258 234 222 213 211 208 200 209
185 161 112 206 245 323 159 81 108 113 275 8 154 270 325 165 194 329 329 310 298 328 330 312 172 188 188 209 254 225 183 234 200 222 215 228 253 235 220 215 210 199 206 207
184 28 46 344 355 352 55 347 105 96 76 203 145 262 23 123 166 234 303 302 339 321 356 51 169 231 233 245 221 262 286 250 235 225 234 242 233 218 215 211 205 199 203 203
88 83 142 175 212 228 323 333 99 128 129 196 225 260 166 203 195 196 272 301 334 18 64 25 45 280 216 215 228 245 251 213 230 248 257 255 231 215 216 211 200 199 198 195
87 122 155 211 231 232 245 297 328 195 213 172 291 197 261 206 173 209 185 57 10 62 53 44 46 47 40 211 209 228 238 251 235 231 230 239 245 219 226 213 200 199 201 207
18 196 107 277 279 9 307 326 23 37 89 67 124 299 275 113 121 87 115 125 48 50 67 32 30 46 24 16 307 216 233 235 226 253 259 260 253 249 225 228 218 197 194 218
120 133 106 258 323 352 14 356 30 85 14 223 250 245 129 76 71 72 83 99 97 65 48 58 51 46 39 19 7 22 358 309 237 234 276 317 292 255 251 242 229 221 210 198
142 114 114 210 25 351 243 128 103 97 31 352 80 92 69 90 76 41 356 120 118 85 73 64 76 59 33 27 33 29 29 33 32 21 14 342 347 338 333 277 250 246 232 213
185 126 113 150 175 276 160 222 99 126 347 336 339 101 108 116 76 5 39 46 58 108 231 176 116 89 66 51 40 47 41 32 42 14 8 1 338 359 15 23 347 315 271 240
69 72 120 135 151 207 236 226 138 122 309 284 156 131 156 102 134 258 287 1 325 308 244 206 189 178 131 219 107 69 20 23 10 356 7 47 5 359 358 355 327 338 309 251
15 18 151 158 197 281 251 292 119 190 223 186 147 161 161 192 200 219 189 244 228 224 229 273 317 307 304 313 304 278 286 308 280 300 325 9 57 16 333 305 220 34 57 75
176 112 219 89 119 245 6 342 186 200 103 151 151 176 183 222 202 208 224 353 352 346 357 6 327 292 276 255 237 280 281 262 274 296 310 315 338 338 68 53 354 188 165 150
341 178 182 168 213 259 307 106 56 84 127 158 141 164 169 176 217 254 252 249 203 203 247 246 250 276 285 267 224 243 252 257 267 287 292 299 317 328 3 54 339 201 217 207
317 143 105 74 319 14 40 50 86 111 112 130 103 96 134 182 237 236 185 208 234 251 262 275 286 284 288 296 293 252 290 300 292 280 280 286 299 299 322 288 285 241 192 217
214 15 120 21 2 39 7 132 141 104 96 95 100 118 118 188 255 234 252 274 265 278 298 320 307 289 276 287 286 288 286 286 280 272 268 269 262 272 264 238 255 235 238 222
186 189 161 210 206 159 214 232 148 133 128 92 85 22 356 18 298 273 272 305 343 16 315 308 286 268 270 262 262 266 266 262 266 277 276 252 261 259 258 226 283 210 197 237